WA6MEM Weather Reports


Display with metric or nautical units.
time (UTC)temp
F
wind
direction
speed
MPH
gust
MPH
rain 1hr
in
rain 24hr
in
rain mn
in
humidity
%
barometer
mb
20260507020532 58 309 5.0 0.0 0.00 0.00 0.01 83 1014.7
20260507020040 59 242 4.0 0.0 0.00 0.00 0.01 82 1014.7
20260507015531 59 127 4.0 0.0 0.00 0.00 0.01 81 1014.7
20260507015031 58 217 5.0 0.0 0.00 0.00 0.01 81 1014.7
20260507014532 58 250 6.0 0.0 0.00 0.00 0.01 80 1014.7
20260507014031 58 141 6.0 0.0 0.00 0.00 0.01 81 1014.6
20260507013531 59 286 5.0 0.0 0.00 0.00 0.01 82 1014.6
20260507013046 59 294 5.0 0.0 0.00 0.00 0.01 81 1014.6
20260507012531 59 333 6.0 0.0 0.00 0.00 0.01 81 1014.6
20260507012031 59 281 6.0 0.0 0.00 0.00 0.01 78 1014.6
20260507011533 59 259 6.0 0.0 0.00 0.00 0.01 77 1014.6
20260507011030 60 308 5.0 0.0 0.00 0.00 0.01 77 1014.6
20260507010530 60 290 5.0 0.0 0.00 0.00 0.01 76 1014.6
20260507010035 60 263 5.0 0.0 0.00 0.00 0.01 77 1014.6
20260507005530 60 281 6.0 0.0 0.00 0.00 0.01 78 1014.6
20260507005029 60 315 5.0 0.0 0.00 0.00 0.01 75 1014.6
20260507004529 60 294 5.0 0.0 0.00 0.00 0.01 79 1014.6
20260507004029 60 319 5.0 0.0 0.00 0.00 0.01 79 1014.6
20260507003530 60 261 4.0 0.0 0.00 0.00 0.01 79 1014.6
20260507003040 61 237 3.0 0.0 0.00 0.00 0.01 81 1014.6
20260507002529 62 235 3.0 0.0 0.00 0.00 0.01 80 1014.5
20260507002029 62 228 3.0 0.0 0.00 0.00 0.01 80 1014.5
20260507001530 62 191 3.0 0.0 0.00 0.00 0.01 80 1014.5
20260507001029 62 225 3.0 0.0 0.00 0.00 0.01 81 1014.5
20260507000528 62 212 3.0 0.0 0.00 0.00 0.01 80 1014.5
20260507000034 62 191 3.0 0.0 0.00 0.00 0.01 80 1014.5
20260506235528 62 315 3.0 0.0 0.00 0.00 0.01 79 1014.5
20260506235027 62 242 3.0 0.0 0.00 0.00 0.01 80 1014.5
20260506234528 63 217 3.0 0.0 0.00 0.00 0.01 79 1014.5
20260506234027 63 248 4.0 0.0 0.00 0.00 0.01 80 1014.5
20260506233527 62 175 5.0 0.0 0.00 0.00 0.01 78 1014.5
20260506233028 62 190 4.0 0.0 0.00 0.00 0.01 76 1014.5
20260506232526 63 360 4.0 0.0 0.00 0.00 0.01 73 1014.7
20260506232026 63 214 5.0 0.0 0.00 0.00 0.01 74 1014.7
20260506231526 63 227 4.0 0.0 0.00 0.00 0.01 75 1014.7
20260506231026 64 236 4.0 0.0 0.00 0.00 0.01 72 1014.9
20260506230526 64 360 5.0 0.0 0.00 0.00 0.01 72 1014.9
20260506230025 64 207 5.0 0.0 0.00 0.00 0.01 73 1014.9
20260506225524 64 200 4.0 0.0 0.00 0.00 0.01 73 1015.0
20260506225024 64 360 4.0 0.0 0.00 0.00 0.01 74 1015.0
20260506224525 64 360 4.0 0.0 0.00 0.00 0.01 74 1015.0
20260506224029 64 360 4.0 0.0 0.00 0.00 0.01 73 1015.2
20260506223523 63 360 5.0 0.0 0.00 0.00 0.01 75 1015.2
20260506223024 63 209 6.0 0.0 0.00 0.00 0.01 72 1015.2
20260506222523 64 209 5.0 0.0 0.00 0.00 0.01 73 1015.4
20260506222028 64 360 4.0 0.0 0.00 0.00 0.01 72 1015.4
20260506221523 64 360 5.0 0.0 0.00 0.00 0.01 71 1015.4
20260506221023 64 360 5.0 0.0 0.00 0.00 0.01 71 1015.5
20260506220523 64 215 4.0 0.0 0.00 0.00 0.01 69 1015.5
20260506220025 64 214 4.0 0.0 0.00 0.00 0.01 70 1015.5
20260506215521 63 209 4.0 0.0 0.00 0.00 0.01 72 1015.7
20260506215024 64 202 4.0 0.0 0.00 0.00 0.01 73 1015.7
20260506214535 64 360 4.0 0.0 0.00 0.00 0.01 73 1015.7
20260506214020 63 165 4.0 0.0 0.00 0.00 0.01 75 1015.7
20260506213519 63 360 4.0 0.0 0.00 0.00 0.01 75 1015.7
20260506213021 63 360 4.0 0.0 0.00 0.00 0.01 76 1015.7
20260506212521 63 227 4.0 0.0 0.00 0.00 0.01 72 1016.0
20260506212020 63 210 5.0 0.0 0.00 0.00 0.01 75 1016.0
20260506211520 63 211 5.0 0.0 0.00 0.00 0.01 75 1016.0
20260506211019 63 269 4.0 0.0 0.00 0.00 0.01 76 1016.1
20260506210519 63 234 4.0 0.0 0.00 0.00 0.01 74 1016.1
20260506210021 63 360 4.0 0.0 0.00 0.00 0.01 71 1016.1
20260506205517 63 179 4.0 0.0 0.00 0.00 0.01 66 1016.1
20260506205018 63 230 4.0 0.0 0.00 0.00 0.01 67 1016.1
20260506204518 63 360 3.0 0.0 0.00 0.00 0.01 68 1016.1
20260506204017 63 190 3.0 0.0 0.00 0.00 0.01 69 1016.0
20260506203517 63 205 4.0 0.0 0.00 0.00 0.01 68 1016.0
20260506203020 63 360 3.0 0.0 0.00 0.00 0.01 69 1016.0
20260506202517 63 360 4.0 0.0 0.00 0.00 0.01 65 1016.3
20260506202017 63 242 4.0 0.0 0.00 0.00 0.01 68 1016.3
20260506201517 63 153 4.0 0.0 0.00 0.00 0.01 67 1016.3
20260506201019 63 182 4.0 0.0 0.00 0.00 0.01 64 1016.5
20260506200515 63 360 3.0 0.0 0.00 0.00 0.01 67 1016.5
20260506200014 62 155 3.0 0.0 0.00 0.00 0.01 69 1016.5
20260506195513 62 173 4.0 0.0 0.00 0.00 0.01 66 1016.6
20260506195013 62 169 4.0 0.0 0.00 0.00 0.01 72 1016.6
20260506194513 62 360 5.0 0.0 0.00 0.00 0.01 71 1016.6
20260506194017 62 200 4.0 0.0 0.00 0.00 0.01 69 1016.5
20260506193512 62 171 4.0 0.0 0.00 0.00 0.01 71 1016.5
20260506193014 62 219 4.0 0.0 0.00 0.00 0.01 74 1016.5
20260506192511 62 360 4.0 0.0 0.00 0.00 0.01 74 1016.8
20260506192011 62 148 4.0 0.0 0.00 0.00 0.01 75 1016.8
20260506191511 62 152 4.0 0.0 0.00 0.00 0.01 74 1016.8
20260506191011 62 185 4.0 0.0 0.00 0.00 0.01 71 1016.9
20260506190518 61 155 4.0 0.0 0.00 0.00 0.01 71 1016.9
20260506190013 62 360 4.0 0.0 0.00 0.00 0.01 73 1016.9
20260506185508 62 244 3.0 0.0 0.00 0.00 0.01 75 1017.0
20260506185008 61 360 4.0 0.0 0.00 0.00 0.01 74 1017.0
20260506184510 62 131 3.0 0.0 0.00 0.00 0.01 75 1017.0
20260506184013 62 162 3.0 0.0 0.00 0.00 0.01 75 1017.1
20260506183507 61 360 4.0 0.0 0.00 0.00 0.01 76 1017.1
20260506183013 61 360 3.0 0.0 0.00 0.00 0.01 77 1017.1
20260506182506 61 204 3.0 0.0 0.00 0.00 0.01 78 1017.1
20260506182010 61 172 4.0 0.0 0.00 0.00 0.01 77 1017.1
20260506181512 61 162 4.0 0.0 0.00 0.00 0.01 78 1017.1
20260506181010 61 174 4.0 0.0 0.00 0.00 0.01 78 1017.2
20260506180505 61 172 3.0 0.0 0.00 0.00 0.01 79 1017.2
20260506180005 61 65 3.0 0.0 0.00 0.00 0.01 80 1017.2
20260506175504 61 360 3.0 0.0 0.00 0.00 0.01 80 1017.1
20260506175002 61 190 3.0 0.0 0.00 0.00 0.01 80 1017.1
20260506174502 61 190 3.0 0.0 0.00 0.00 0.01 80 1017.1
20260506174002 60 107 3.0 0.0 0.00 0.00 0.01 81 1017.1
20260506173503 60 169 3.0 0.0 0.00 0.00 0.01 82 1017.1
20260506173002 60 171 3.0 0.0 0.00 0.00 0.01 82 1017.1
20260506172502 60 186 3.0 0.0 0.00 0.00 0.01 81 1017.1
20260506172003 60 144 3.0 0.0 0.00 0.00 0.01 81 1017.1
20260506171605 60 197 3.0 0.0 0.00 0.00 0.01 81 1017.1
20260506171103 60 132 2.0 0.0 0.00 0.00 0.01 81 1016.9
20260506170601 60 163 2.0 0.0 0.00 0.00 0.01 82 1016.9
20260506170058 60 175 3.0 0.0 0.00 0.00 0.01 82 1016.9
20260506165600 60 221 2.0 0.0 0.00 0.00 0.01 83 1016.9
20260506165057 60 212 2.0 0.0 0.00 0.00 0.01 83 1016.9
20260506164607 59 175 2.0 0.0 0.00 0.00 0.01 84 1016.9
20260506164058 59 166 2.0 0.0 0.00 0.00 0.01 84 1016.8
20260506163555 59 189 3.0 0.0 0.00 0.00 0.01 85 1016.8
20260506163055 59 209 2.0 0.0 0.00 0.00 0.01 85 1016.8
20260506162554 59 175 2.0 0.0 0.00 0.00 0.01 86 1016.8
20260506162056 58 209 2.0 0.0 0.00 0.00 0.01 87 1016.8
20260506161551 58 188 3.0 0.0 0.00 0.00 0.01 87 1016.8
20260506161053 58 121 3.0 0.0 0.00 0.00 0.01 87 1016.9
20260506160549 57 203 3.0 0.0 0.00 0.00 0.01 88 1016.9
20260506160053 57 142 3.0 0.0 0.00 0.00 0.01 89 1016.9
20260506155549 57 161 3.0 0.0 0.00 0.00 0.01 90 1016.8
20260506155045 56 184 2.0 0.0 0.00 0.00 0.01 91 1016.8
20260506154543 56 195 2.0 0.0 0.00 0.00 0.01 92 1016.8
20260506154044 56 171 2.0 0.0 0.00 0.00 0.01 91 1016.9
20260506153542 55 207 2.0 0.0 0.00 0.00 0.01 91 1016.9
20260506153104 55 138 2.0 0.0 0.00 0.00 0.01 91 1016.9
20260506152540 55 170 1.0 0.0 0.00 0.00 0.01 91 1017.0
20260506152040 55 190 1.0 0.0 0.00 0.00 0.01 91 1017.0
20260506151543 55 192 1.0 0.0 0.00 0.00 0.01 92 1017.0
20260506151042 54 173 1.0 0.0 0.00 0.00 0.01 93 1016.9
20260506150537 54 173 1.0 0.0 0.00 0.00 0.01 93 1016.9
20260506150042 54 219 1.0 0.0 0.00 0.00 0.01 94 1016.9
20260506145535 53 163 1.0 0.0 0.00 0.00 0.01 94 1017.0
20260506145034 53 135 1.0 0.0 0.00 0.00 0.01 94 1017.0
20260506144533 53 139 1.0 0.0 0.00 0.00 0.01 94 1017.0
20260506144033 53 103 1.0 0.0 0.00 0.00 0.01 94 1017.0
20260506143533 53 175 0.0 0.0 0.00 0.00 0.01 95 1017.0
20260506143033 53 109 0.0 0.0 0.00 0.00 0.01 95 1017.0
20260506142532 53 65 0.0 0.0 0.00 0.00 0.01 95 1017.0
20260506142032 52 65 0.0 0.0 0.00 0.00 0.01 95 1017.0
20260506141531 52 65 0.0 0.0 0.00 0.00 0.01 95 1017.0
20260506141031 52 65 0.0 0.0 0.00 0.00 0.01 95 1016.9
20260506140530 52 355 0.0 0.0 0.00 0.00 0.01 95 1016.9
20260506140030 52 355 0.0 0.0 0.00 0.00 0.01 95 1016.9
20260506135528 52 355 0.0 0.0 0.00 0.00 0.01 95 1016.7
20260506135028 51 355 0.0 0.0 0.00 0.00 0.01 95 1016.7
20260506134531 51 355 0.0 0.0 0.00 0.00 0.01 95 1016.7
20260506134028 51 355 0.0 0.0 0.00 0.00 0.01 95 1016.7
20260506133528 51 355 0.0 0.0 0.00 0.00 0.01 95 1016.7
20260506133028 50 355 0.0 0.0 0.00 0.00 0.01 95 1016.7
20260506132531 50 355 0.0 0.0 0.00 0.00 0.01 95 1016.5
20260506132027 50 355 0.0 0.0 0.00 0.00 0.01 95 1016.5
20260506131534 50 5 0.0 0.0 0.00 0.00 0.01 95 1016.5
20260506131027 50 5 0.0 0.0 0.00 0.00 0.01 95 1016.3
20260506130527 50 5 0.0 0.0 0.00 0.00 0.01 95 1016.3
20260506130027 50 5 0.0 0.0 0.00 0.00 0.01 95 1016.3
20260506125525 50 5 0.0 0.0 0.00 0.00 0.01 95 1016.0
20260506125028 50 5 0.0 0.0 0.00 0.00 0.00 95 1016.0
20260506124525 50 5 0.0 0.0 0.00 0.00 0.00 95 1016.0
20260506124025 50 5 0.0 0.0 0.00 0.00 0.00 95 1015.9
20260506123526 50 5 0.0 0.0 0.00 0.00 0.00 95 1015.9
20260506123024 50 5 0.0 0.0 0.00 0.00 0.00 95 1015.9
20260506122525 50 5 0.0 0.0 0.00 0.00 0.00 95 1015.8
20260506122026 50 5 0.0 0.0 0.00 0.00 0.00 95 1015.8
20260506121524 50 5 0.0 0.0 0.00 0.00 0.00 94 1015.8
20260506121024 50 5 0.0 0.0 0.00 0.00 0.00 94 1015.9
20260506120527 50 5 0.0 0.0 0.00 0.00 0.00 94 1015.9
20260506120024 50 5 0.0 0.0 0.00 0.00 0.00 95 1015.9
20260506115526 50 5 0.0 0.0 0.00 0.00 0.00 95 1015.8
20260506115023 50 5 0.0 0.0 0.00 0.00 0.00 94 1015.8
20260506114528 50 5 0.0 0.0 0.00 0.00 0.00 94 1015.8
20260506114023 50 5 0.0 0.0 0.00 0.00 0.00 94 1015.8
20260506113523 50 5 0.0 0.0 0.00 0.00 0.00 94 1015.8
20260506113035 50 5 0.0 0.0 0.00 0.00 0.00 94 1015.8
20260506112522 50 5 0.0 0.0 0.00 0.00 0.00 94 1015.8
20260506112022 50 5 0.0 0.0 0.00 0.00 0.00 94 1015.8
20260506111522 50 5 0.0 0.0 0.00 0.00 0.00 94 1015.8
20260506111023 50 5 0.0 0.0 0.00 0.00 0.00 95 1015.7
20260506110523 50 5 0.0 0.0 0.00 0.00 0.00 94 1015.7
20260506110022 50 5 0.0 0.0 0.00 0.00 0.00 94 1015.7
20260506105521 50 5 0.0 0.0 0.00 0.00 0.00 94 1015.7
20260506105022 50 5 0.0 0.0 0.00 0.00 0.00 94 1015.7
20260506104524 50 5 0.0 0.0 0.00 0.00 0.00 94 1015.7
20260506104020 50 5 0.0 0.0 0.00 0.00 0.00 94 1015.7
20260506103521 50 5 0.0 0.0 0.00 0.00 0.00 94 1015.7
20260506103025 51 5 0.0 0.0 0.00 0.00 0.00 94 1015.7
20260506102520 50 5 0.0 0.0 0.00 0.00 0.00 94 1015.7
20260506102020 50 5 0.0 0.0 0.00 0.00 0.00 94 1015.7
20260506101520 50 5 0.0 0.0 0.00 0.00 0.00 94 1015.7
20260506101019 50 5 0.0 0.0 0.00 0.00 0.00 94 1015.6
20260506100519 50 5 0.0 0.0 0.00 0.00 0.00 94 1015.6
20260506100019 50 5 0.0 0.0 0.00 0.00 0.00 94 1015.6
20260506095518 50 5 0.0 0.0 0.00 0.00 0.00 94 1015.7
20260506095018 50 5 0.0 0.0 0.00 0.00 0.00 94 1015.7
20260506094517 49 5 0.0 0.0 0.00 0.00 0.00 94 1015.7
20260506094016 50 5 0.0 0.0 0.00 0.00 0.00 94 1015.7
20260506093516 50 5 0.0 0.0 0.00 0.00 0.00 94 1015.7
20260506093015 50 257 0.0 0.0 0.00 0.00 0.00 94 1015.7
20260506092515 50 257 0.0 0.0 0.00 0.00 0.00 94 1015.7
20260506092014 51 257 0.0 0.0 0.00 0.00 0.00 94 1015.7
20260506091513 51 257 0.0 0.0 0.00 0.00 0.00 94 1015.7
20260506091013 51 257 0.0 0.0 0.00 0.00 0.00 94 1015.8
20260506090511 51 257 0.0 0.0 0.00 0.00 0.00 94 1015.8
20260506090015 52 257 0.0 0.0 0.00 0.00 0.00 94 1015.8
20260506085509 52 257 0.0 0.0 0.00 0.00 0.00 94 1016.0
20260506085011 52 257 0.0 0.0 0.00 0.00 0.00 94 1016.0
20260506084509 52 257 0.0 0.0 0.00 0.00 0.00 94 1016.0
20260506084012 52 165 0.0 0.0 0.00 0.00 0.00 94 1016.0
20260506083509 52 165 0.0 0.0 0.00 0.00 0.00 94 1016.0
20260506083008 52 165 0.0 0.0 0.00 0.00 0.00 94 1016.0
20260506082508 52 186 0.0 0.0 0.00 0.00 0.00 94 1016.1
20260506082010 52 186 1.0 0.0 0.00 0.00 0.00 94 1016.1
20260506081509 52 184 1.0 0.0 0.00 0.00 0.00 94 1016.1
20260506081013 52 167 1.0 0.0 0.00 0.00 0.00 94 1016.2
20260506080508 52 184 1.0 0.0 0.00 0.00 0.00 94 1016.2
20260506073505 52 172 0.0 0.0 0.00 0.00 0.00 94 1016.2
20260506073005 52 172 1.0 0.0 0.00 0.00 0.00 94 1016.2
20260506072505 52 172 1.0 0.0 0.00 0.00 0.00 94 1016.1
20260506072005 52 172 1.0 0.0 0.00 0.00 0.00 94 1016.1
20260506071505 52 170 1.0 0.0 0.00 0.00 0.00 94 1016.1
20260506071006 52 174 1.0 0.0 0.00 0.00 0.00 94 1016.0
20260506070503 52 182 1.0 0.0 0.00 0.00 0.00 94 1016.0
20260506062502 52 171 2.0 0.0 0.00 0.00 0.00 94 1015.7
20260506062002 53 360 1.0 0.0 0.00 0.00 0.00 94 1015.7
20260506061501 53 167 1.0 0.0 0.00 0.00 0.00 93 1015.7
20260506061003 53 166 2.0 0.0 0.00 0.00 0.00 93 1015.7
20260506060501 53 169 2.0 0.0 0.00 0.00 0.00 93 1015.7
20260506051058 53 166 2.0 0.0 0.00 0.00 0.00 93 1015.2
20260506050558 53 167 2.0 0.0 0.00 0.00 0.00 93 1015.2
20260506050106 53 161 2.0 0.0 0.00 0.00 0.00 93 1015.2
20260506045056 53 161 1.0 0.0 0.00 0.00 0.00 92 1015.1
20260506044556 53 176 1.0 0.0 0.00 0.00 0.00 92 1015.1
20260506044056 53 175 1.0 0.0 0.00 0.00 0.00 92 1015.0
20260506043556 53 178 1.0 0.0 0.00 0.00 0.00 92 1015.0
20260506043100 53 160 1.0 0.0 0.00 0.00 0.00 92 1015.0
20260506042557 53 160 1.0 0.0 0.00 0.00 0.00 91 1014.7
20260506042057 54 160 1.0 0.0 0.00 0.00 0.00 91 1014.7
20260506041601 54 160 1.0 0.0 0.00 0.00 0.00 91 1014.7
20260506041056 54 160 1.0 0.0 0.00 0.00 0.00 90 1014.7
20260506040555 53 169 2.0 0.0 0.00 0.00 0.00 89 1014.7
20260506040055 53 177 2.0 0.0 0.00 0.00 0.00 88 1014.7
20260506035558 53 166 2.0 0.0 0.00 0.00 0.00 87 1014.5
20260506035056 53 182 2.0 0.0 0.00 0.00 0.00 86 1014.5
20260506034612 53 193 2.0 0.0 0.00 0.00 0.00 86 1014.5
20260506034056 53 179 2.0 0.0 0.00 0.00 0.00 86 1014.3
20260506033554 53 171 1.0 0.0 0.00 0.00 0.00 86 1014.3
20260506033053 53 165 1.0 0.0 0.00 0.00 0.00 88 1014.3
20260506032559 53 165 1.0 0.0 0.00 0.00 0.00 88 1014.2
20260506032058 53 165 1.0 0.0 0.00 0.00 0.00 89 1014.2
20260506031601 54 195 0.0 0.0 0.00 0.00 0.00 89 1014.2
20260506031053 54 195 1.0 0.0 0.00 0.00 0.00 90 1014.0
20260506030554 54 195 1.0 0.0 0.00 0.00 0.00 90 1014.0
20260506030052 54 195 1.0 0.0 0.00 0.00 0.00 89 1014.0
20260506025553 54 205 2.0 0.0 0.00 0.00 0.00 89 1013.6
20260506025051 54 202 2.0 0.0 0.00 0.00 0.00 89 1013.6
20260506024607 54 200 2.0 0.0 0.00 0.00 0.00 88 1013.6
20260506024052 54 183 2.0 0.0 0.00 0.00 0.00 88 1013.6
20260506023552 55 165 2.0 0.0 0.00 0.00 0.00 88 1013.6
20260506023051 55 159 3.0 0.0 0.00 0.00 0.00 87 1013.6
20260506022551 55 136 3.0 0.0 0.00 0.00 0.00 86 1013.3
20260506022051 55 169 3.0 0.0 0.00 0.00 0.00 86 1013.3
20260506021552 55 205 3.0 0.0 0.00 0.00 0.00 85 1013.3
20260506021051 56 205 3.0 0.0 0.00 0.00 0.00 85 1013.3